period_start,C,m1,H,J0,J1,J2,J3,J4,J5,JA,JB,JC,JD,JJ,JK,JN,#
2015-10-09 00:02:46,0.08,1.57,0.00,22.03,27.26,30.30,14.78,48.05,1027.87,2037.00,2901.76,2878.07,3112.87,599.92,604.48,29.39,0000 0000 0000 0000 000000
2015-10-09 00:07:48,0.07,1.57,0.00,21.95,27.27,30.37,14.76,48.14,1027.89,2037.00,2900.35,2877.07,3111.71,599.95,604.68,29.44,0000 0000 0000 0000 000000
2015-10-09 00:12:49,0.07,1.57,0.00,21.91,27.28,30.37,14.80,48.17,1027.86,2036.97,2898.87,2876.10,3110.56,599.80,604.65,29.49,0000 0000 0000 0000 000000
2015-10-09 00:17:50,0.07,1.58,0.00,22.16,27.30,30.29,14.76,48.08,1027.86,2036.97,2897.68,2875.13,3109.62,599.87,604.21,29.54,0000 0000 0000 0000 000000
2015-10-09 00:22:52,0.05,1.58,0.00,22.30,27.32,30.30,14.71,47.97,1027.86,2036.83,2896.47,2874.28,3108.66,599.95,604.02,29.59,0000 0000 0000 0000 000000
2015-10-09 00:27:53,0.05,1.58,0.00,22.14,27.34,30.36,14.78,48.04,1027.85,2036.71,2895.12,2873.39,3107.68,600.28,604.62,29.64,0000 0000 0000 0000 000000
2015-10-09 00:32:54,0.03,1.58,0.00,22.07,27.35,30.42,14.80,48.17,1027.85,2036.26,2893.72,2872.50,3106.60,600.20,604.72,29.69,0000 0000 0000 0000 000000
2015-10-09 00:37:55,0.06,1.59,0.00,22.05,27.37,30.40,14.80,48.21,1027.85,2036.14,2892.35,2871.64,3105.60,599.97,604.71,29.74,0000 0000 0000 0000 000000
2015-10-09 00:42:57,0.07,1.59,0.00,22.27,27.38,30.35,14.72,48.14,1027.85,2036.09,2890.86,2870.61,3104.49,599.84,603.98,29.79,0000 0000 0000 0000 000000
2015-10-09 00:47:58,0.06,1.59,0.00,22.35,27.40,30.36,14.87,48.05,1027.85,2036.06,2889.55,2869.74,3103.48,600.27,604.13,29.84,0000 0000 0000 0000 000000
2015-10-09 00:52:59,0.08,1.60,0.00,22.20,27.41,30.41,14.81,48.19,1027.85,2036.02,2887.99,2868.70,3102.38,600.28,604.42,29.89,0000 0000 0000 0000 000000
2015-10-09 00:58:01,0.08,1.60,0.00,22.11,27.42,30.45,14.82,48.16,1027.85,2036.02,2886.28,2867.52,3101.13,599.60,604.03,29.94,0000 0000 0000 0000 000000
2015-10-09 01:03:02,0.09,1.61,0.00,22.17,27.42,30.44,14.79,48.12,1027.85,2036.01,2884.56,2866.34,3099.74,600.26,604.70,29.99,0000 0000 0000 0000 000000
2015-10-09 01:08:03,0.08,1.61,0.00,22.44,27.45,30.38,14.71,48.18,1027.85,2036.00,2882.88,2865.17,3098.45,599.82,603.49,30.04,0000 0000 0000 0000 000000
2015-10-09 01:13:05,0.07,1.62,0.00,22.37,27.46,30.41,14.87,48.20,1027.83,2036.00,2881.30,2864.06,3097.23,600.21,604.08,30.09,0000 0000 0000 0000 000000
2015-10-09 01:18:06,0.08,1.62,0.00,22.29,27.47,30.46,14.70,48.22,1027.85,2036.00,2879.82,2863.05,3096.11,599.95,604.02,30.14,0000 0000 0000 0000 000000
2015-10-09 01:23:07,0.08,1.62,0.00,22.47,27.49,30.43,14.85,48.21,1027.83,2036.00,2878.45,2861.91,3094.86,600.08,603.77,30.19,0000 0000 0000 0000 000000
2015-10-09 01:28:08,0.07,1.63,0.00,22.58,27.50,30.43,14.82,48.19,1027.78,2035.99,2876.87,2860.91,3093.72,600.15,603.54,30.24,0000 0000 0000 0000 000000
2015-10-09 01:33:10,0.09,1.63,0.00,22.43,27.52,30.49,14.89,48.19,1027.73,2035.98,2875.36,2859.81,3092.57,600.18,604.05,30.29,0000 0000 0000 0000 000000
2015-10-09 01:38:11,0.08,1.64,0.00,22.44,27.53,30.48,14.73,48.17,1027.68,2035.97,2873.74,2858.78,3091.37,599.88,603.54,30.34,0000 0000 0000 0000 000000
2015-10-09 01:43:12,0.08,1.64,0.00,22.64,27.55,30.42,14.61,48.20,1027.57,2035.93,2872.05,2857.64,3090.12,599.67,602.96,30.39,0000 0000 0000 0000 000000
2015-10-09 01:48:13,0.10,1.65,0.00,22.55,27.57,30.49,14.67,48.22,1027.38,2035.90,2869.94,2856.30,3088.64,599.96,603.26,30.44,0000 0000 0000 0000 000000
2015-10-09 01:53:15,0.06,1.65,0.00,22.52,27.58,30.50,14.80,48.24,1027.38,2035.60,2867.98,2854.97,3087.23,600.23,603.62,30.49,0000 0000 0000 0000 000000
2015-10-09 01:58:16,0.25,1.66,0.00,22.69,27.60,30.48,14.86,48.28,1027.38,2035.28,2864.04,2852.19,3084.14,600.17,603.06,30.54,0000 0000 0000 0000 000000
2015-10-09 02:03:18,0.18,1.67,0.00,22.70,27.62,30.50,14.73,48.19,1027.38,2035.17,2859.67,2849.21,3080.77,600.08,603.13,30.59,0000 0000 0000 0000 000000
2015-10-09 02:08:19,0.14,1.68,0.00,22.68,27.64,30.51,14.73,48.27,1027.39,2035.06,2856.62,2847.15,3078.41,599.95,603.04,30.64,0000 0000 0000 0000 000000
2015-10-09 02:13:20,0.12,1.68,0.00,22.74,27.66,30.53,14.71,48.35,1027.39,2035.01,2854.10,2845.37,3076.56,600.36,603.23,30.69,0000 0000 0000 0000 000000
2015-10-09 02:18:22,0.13,1.69,0.00,22.76,27.68,30.52,14.78,48.20,1027.37,2035.00,2851.66,2843.80,3074.81,600.20,603.02,30.74,0000 0000 0000 0000 000000
2015-10-09 02:23:23,0.16,1.70,0.00,22.72,27.70,30.53,14.73,48.29,1027.37,2035.00,2848.54,2841.80,3072.62,600.23,603.06,30.79,0000 0000 0000 0000 000000
2015-10-09 02:28:25,0.16,1.71,0.00,22.58,27.70,30.55,14.71,48.35,1027.36,2035.00,2845.44,2839.82,3070.48,599.96,603.16,30.84,0000 0000 0000 0000 000000
2015-10-09 02:33:26,0.15,1.72,0.00,22.52,27.72,30.57,14.75,48.23,1027.36,2035.00,2842.37,2837.84,3068.28,600.43,603.74,30.89,0000 0000 0000 0000 000000
2015-10-09 02:38:28,0.13,1.72,0.00,22.60,27.72,30.58,14.74,48.40,1027.36,2034.99,2839.91,2836.07,3066.33,600.32,603.38,30.94,0000 0000 0000 0000 000000
2015-10-09 02:43:29,0.28,1.73,0.00,22.58,27.75,30.59,14.82,48.38,1027.36,2034.98,2835.67,2833.13,3063.21,600.17,603.34,30.99,0000 0000 0000 0000 000000
2015-10-09 02:48:30,0.33,1.75,0.00,22.52,27.75,30.61,14.71,48.27,1027.36,2034.99,2829.56,2829.00,3058.77,599.84,603.11,31.04,0000 0000 0000 0000 000000
2015-10-09 02:53:31,0.31,1.77,0.00,22.66,27.75,30.62,14.77,48.26,1027.36,2034.98,2823.80,2825.05,3054.62,599.90,602.92,31.09,0000 0000 0000 0000 000000
2015-10-09 02:58:33,0.27,1.78,0.00,22.58,27.77,30.61,14.77,48.30,1027.36,2034.97,2818.54,2821.45,3050.83,600.17,603.39,31.14,0000 0000 0000 0000 000000
2015-10-09 03:03:34,0.26,1.79,0.00,22.54,27.77,30.63,14.79,48.23,1027.36,2034.95,2813.82,2818.14,3047.31,600.10,603.46,31.19,0000 0000 0000 0000 000000
2015-10-09 03:08:35,0.28,1.81,0.00,22.66,27.77,30.61,14.70,48.25,1027.36,2034.88,2808.72,2814.70,3043.50,599.96,602.97,31.24,0000 0000 0000 0000 000000
2015-10-09 03:13:37,0.30,1.82,0.00,22.67,27.77,30.63,14.63,48.16,1027.36,2034.90,2803.23,2811.04,3039.60,599.86,602.85,31.29,0000 0000 0000 0000 000000
2015-10-09 03:18:38,0.30,1.84,0.00,22.59,27.77,30.65,14.83,48.14,1027.34,2034.80,2797.56,2807.19,3035.47,600.30,603.32,31.34,0000 0000 0000 0000 000000
2015-10-09 03:23:39,0.21,1.85,0.00,22.69,27.79,30.63,14.84,48.19,1027.25,2034.41,2792.46,2803.64,3031.73,599.89,602.63,31.39,0000 0000 0000 0000 000000
2015-10-09 03:28:40,0.14,1.86,0.00,22.65,27.80,30.65,14.71,48.23,1027.10,2034.23,2789.40,2801.53,3029.47,600.01,602.85,31.44,0000 0000 0000 0000 000000
2015-10-09 03:33:42,0.24,1.87,0.00,22.74,27.80,30.65,14.82,48.31,1026.93,2034.41,2785.70,2799.06,3026.76,600.38,603.00,31.49,0000 0000 0000 0000 000000
2015-10-09 03:38:43,0.19,1.88,0.00,22.64,27.80,30.67,14.68,48.14,1026.94,2034.27,2781.89,2796.49,3024.04,599.90,602.71,31.54,0000 0000 0000 0000 000000
2015-10-09 03:43:44,0.18,1.89,0.00,22.64,27.80,30.66,14.84,48.23,1027.02,2034.14,2778.30,2794.00,3021.35,600.14,602.88,31.59,0000 0000 0000 0000 000000
2015-10-09 03:48:45,0.20,1.90,0.00,22.78,27.80,30.62,14.65,48.28,1027.00,2034.07,2774.74,2791.47,3018.64,599.87,602.45,31.64,0000 0000 0000 0000 000000
2015-10-09 03:53:46,0.19,1.91,0.00,22.71,27.82,30.65,14.80,48.27,1026.93,2034.04,2771.28,2789.02,3015.99,600.18,602.85,31.69,0000 0000 0000 0000 000000
2015-10-09 03:58:48,0.26,1.92,0.00,22.74,27.82,30.65,14.69,48.17,1026.93,2034.04,2767.20,2786.08,3012.86,600.06,602.62,31.74,0000 0000 0000 0000 000000
2015-10-09 04:03:49,0.38,1.94,0.00,22.74,27.82,30.65,14.76,48.27,1026.89,2034.04,2760.66,2781.25,3007.94,600.09,602.67,31.79,0000 0000 0000 0000 000000
2015-10-09 04:08:51,0.14,1.95,0.00,22.80,27.83,30.67,14.72,48.27,1026.91,2034.01,2757.58,2779.00,3005.60,599.89,602.43,31.84,0000 0000 0000 0000 000000
2015-10-09 04:13:52,0.24,1.96,0.00,22.70,27.83,30.65,14.79,48.29,1026.90,2034.00,2753.75,2776.26,3002.64,600.35,603.01,31.90,0000 0000 0000 0000 000000
2015-10-09 04:18:53,0.20,1.97,0.00,22.78,27.85,30.66,14.68,48.38,1026.89,2034.02,2750.25,2773.67,2999.92,600.09,602.59,31.95,0000 0000 0000 0000 000000
2015-10-09 04:23:54,0.18,1.98,0.00,22.81,27.85,30.64,14.60,48.33,1026.90,2034.02,2746.89,2771.29,2997.34,599.63,602.14,32.00,0000 0000 0000 0000 000000
2015-10-09 04:28:55,0.17,1.99,0.00,22.80,27.85,30.67,14.72,48.33,1026.90,2034.00,2744.01,2769.16,2995.13,599.95,602.34,32.05,0000 0000 0000 0000 000000
2015-10-09 04:33:57,0.47,2.01,0.00,22.81,27.85,30.66,14.68,48.39,1026.89,2034.01,2738.01,2764.89,2990.56,600.00,602.44,32.10,0000 0000 0000 0000 000000
2015-10-09 04:38:58,0.70,2.04,0.00,22.72,27.86,30.68,14.70,48.24,1026.89,2034.00,2725.47,2756.04,2981.25,599.99,602.58,32.15,0000 0000 0000 0000 000000
2015-10-09 04:43:59,0.55,2.07,0.00,22.78,27.87,30.65,14.70,48.20,1026.89,2034.00,2715.67,2749.28,2973.91,600.21,602.86,32.20,0000 0000 0000 0000 000000
2015-10-09 04:49:00,0.36,2.09,0.00,22.85,27.87,30.67,14.67,48.17,1026.88,2034.00,2708.67,2744.38,2968.74,600.00,602.47,32.25,0000 0000 0000 0000 000000
2015-10-09 04:54:02,0.24,2.11,0.00,22.92,27.87,30.67,14.69,48.17,1026.88,2034.00,2704.08,2741.12,2965.28,599.99,602.18,32.30,0000 0000 0000 0000 000000
2015-10-09 04:59:03,0.19,2.12,0.00,22.85,27.87,30.69,14.65,48.15,1026.87,2034.00,2700.54,2738.57,2962.57,599.87,602.27,32.35,0000 0000 0000 0000 000000
2015-10-09 05:04:04,0.21,2.13,0.00,22.87,27.87,30.66,14.63,48.18,1026.87,2034.00,2697.02,2736.07,2959.87,599.91,602.05,32.40,0000 0000 0000 0000 000000
2015-10-09 05:09:06,0.23,2.14,0.00,22.85,27.87,30.67,14.66,48.17,1026.87,2034.00,2693.19,2733.31,2956.92,600.02,602.37,32.45,0000 0000 0000 0000 000000
2015-10-09 05:14:07,0.24,2.15,0.00,22.96,27.87,30.65,14.64,48.16,1026.87,2034.00,2689.26,2730.46,2953.87,599.98,602.12,32.50,0000 0000 0000 0000 000000
2015-10-09 05:19:08,0.27,2.17,0.00,22.91,27.87,30.66,14.74,48.02,1026.87,2034.00,2684.76,2727.18,2950.41,600.04,602.15,32.55,0000 0000 0000 0000 000000
2015-10-09 05:24:09,0.26,2.18,0.00,22.89,27.87,30.67,14.81,48.12,1026.84,2034.00,2680.32,2724.06,2947.14,600.36,602.66,32.60,0000 0000 0000 0000 000000
2015-10-09 05:29:10,0.24,2.19,0.00,22.92,27.87,30.67,14.86,48.23,1026.84,2034.00,2676.00,2721.08,2944.01,599.95,602.16,32.65,0000 0000 0000 0000 000000
2015-10-09 05:34:11,0.25,2.20,0.00,22.88,27.87,30.70,14.70,48.17,1026.83,2033.99,2671.79,2718.03,2940.85,599.96,602.27,32.70,0000 0000 0000 0000 000000
2015-10-09 05:39:12,0.29,2.22,0.00,22.94,27.87,30.66,14.63,48.05,1026.79,2033.99,2667.22,2714.69,2937.34,599.93,602.04,32.75,0000 0000 0000 0000 000000
2015-10-09 05:44:14,0.41,2.24,0.00,22.97,27.87,30.66,14.83,48.19,1026.70,2033.99,2660.83,2710.00,2932.37,600.36,602.36,32.80,0000 0000 0000 0000 000000
2015-10-09 05:49:15,0.28,2.25,0.00,22.95,27.87,30.68,14.73,48.17,1026.55,2033.99,2655.60,2706.22,2928.35,600.00,601.83,32.85,0000 0000 0000 0000 000000
2015-10-09 05:54:17,0.28,2.27,0.00,23.03,27.86,30.67,14.60,48.07,1026.49,2033.99,2651.09,2703.00,2924.96,599.67,601.44,32.90,0000 0000 0000 0000 000000
2015-10-09 05:59:18,0.33,2.28,0.00,22.99,27.85,30.67,14.61,48.16,1026.43,2033.99,2645.79,2699.23,2920.96,599.71,601.52,32.96,0000 0000 0000 0000 000000
2015-10-09 06:04:20,0.26,2.30,0.00,23.02,27.85,30.64,14.61,48.10,1026.41,2033.99,2641.05,2695.90,2917.44,599.77,601.50,33.01,0000 0000 0000 0000 000000
2015-10-09 06:09:21,0.23,2.31,0.00,23.02,27.85,30.65,14.59,48.06,1026.42,2033.99,2637.10,2693.14,2914.50,599.85,601.60,33.06,0000 0000 0000 0000 000000
2015-10-09 06:14:22,0.21,2.32,0.00,23.08,27.85,30.63,14.64,48.13,1026.41,2033.99,2633.65,2690.63,2911.82,599.93,601.55,33.11,0000 0000 0000 0000 000000
2015-10-09 06:19:23,0.15,2.33,0.00,23.09,27.85,30.64,14.74,48.16,1026.43,2033.99,2630.72,2688.58,2909.59,600.29,601.86,33.16,0000 0000 0000 0000 000000
2015-10-09 06:24:24,0.17,2.34,0.00,23.10,27.85,30.67,14.81,48.26,1026.43,2033.99,2628.04,2686.76,2907.58,600.48,601.89,33.21,0000 0000 0000 0000 000000
2015-10-09 06:29:25,0.16,2.35,0.00,23.08,27.85,30.65,14.71,48.23,1026.41,2033.99,2625.01,2684.68,2905.29,599.94,601.57,33.26,0000 0000 0000 0000 000000
2015-10-09 06:34:26,0.19,2.36,0.00,23.10,27.85,30.68,14.69,48.18,1026.40,2033.99,2622.24,2682.57,2903.06,600.19,601.77,33.31,0000 0000 0000 0000 000000
2015-10-09 06:39:28,0.33,2.38,0.00,23.15,27.85,30.65,14.62,48.02,1026.39,2033.99,2617.19,2678.94,2899.20,599.90,601.42,33.36,0000 0000 0000 0000 000000
2015-10-09 06:44:29,0.20,2.39,0.00,23.08,27.85,30.65,14.63,48.17,1026.39,2033.99,2613.42,2676.24,2896.33,599.95,601.60,33.41,0000 0000 0000 0000 000000
2015-10-09 06:49:30,0.23,2.40,0.00,23.05,27.85,30.68,14.68,48.18,1026.40,2033.99,2609.89,2673.68,2893.61,599.86,601.60,33.46,0000 0000 0000 0000 000000
2015-10-09 06:54:31,0.23,2.41,0.00,23.08,27.85,30.64,14.65,48.15,1026.39,2033.99,2606.08,2670.89,2890.62,599.84,601.43,33.51,0000 0000 0000 0000 000000
2015-10-09 06:59:33,0.25,2.42,0.00,23.12,27.85,30.64,14.75,48.16,1026.39,2033.99,2602.23,2668.15,2887.71,600.51,601.94,33.56,0000 0000 0000 0000 000000
2015-10-09 07:04:34,0.21,2.43,0.00,23.06,27.85,30.66,14.59,48.10,1026.38,2033.99,2598.39,2665.39,2884.82,600.07,601.67,33.61,0000 0000 0000 0000 000000
2015-10-09 07:09:35,0.22,2.45,0.00,23.11,27.85,30.64,14.63,48.11,1026.40,2033.99,2595.00,2662.97,2882.22,599.85,601.41,33.66,0000 0000 0000 0000 000000
2015-10-09 07:14:37,0.20,2.46,0.00,23.09,27.85,30.66,14.72,48.27,1026.39,2033.99,2591.57,2660.48,2879.59,600.06,601.67,33.71,0000 0000 0000 0000 000000
2015-10-09 07:19:38,0.16,2.47,0.00,23.08,27.85,30.65,14.70,48.14,1026.39,2033.99,2588.71,2658.46,2877.58,599.94,601.57,33.76,0000 0000 0000 0000 000000
2015-10-09 07:24:39,0.17,2.47,0.00,23.21,27.85,30.63,14.60,48.17,1026.38,2033.99,2586.11,2656.62,2875.56,599.73,601.00,33.81,0000 0000 0000 0000 000000
2015-10-09 07:29:40,0.14,2.48,0.00,23.21,27.85,30.66,14.61,48.18,1026.38,2033.99,2583.65,2654.82,2873.67,599.90,601.19,33.87,0000 0000 0000 0000 000000
2015-10-09 07:34:42,0.10,2.49,0.00,23.20,27.85,30.64,14.64,48.08,1026.38,2033.99,2581.89,2653.64,2872.41,599.90,601.22,33.92,0000 0000 0000 0000 000000
2015-10-09 07:39:43,0.08,2.49,0.00,23.22,27.84,30.66,14.57,48.05,1026.38,2033.99,2580.54,2652.66,2871.34,599.72,600.98,33.97,0000 0000 0000 0000 000000
2015-10-09 07:44:44,0.12,2.50,0.00,23.14,27.83,30.65,14.72,48.13,1026.38,2033.99,2578.73,2651.45,2869.85,600.48,601.95,34.02,0000 0000 0000 0000 000000
2015-10-09 07:49:46,0.10,2.50,0.00,23.19,27.83,30.67,14.71,47.96,1026.38,2033.99,2576.94,2650.14,2868.52,600.15,601.55,34.07,0000 0000 0000 0000 000000
2015-10-09 07:54:47,0.11,2.51,0.00,23.05,27.82,30.66,14.68,47.92,1026.38,2033.99,2575.10,2648.80,2867.10,600.22,601.81,34.12,0000 0000 0000 0000 000000
2015-10-09 07:59:49,0.10,2.51,0.00,23.12,27.82,30.63,14.64,48.04,1026.38,2033.99,2573.67,2647.72,2865.91,599.89,601.47,34.17,0000 0000 0000 0000 000000
2015-10-09 08:04:50,0.05,2.52,0.00,23.12,27.82,30.66,14.65,48.08,1026.38,2033.99,2572.45,2646.94,2864.98,599.83,601.41,34.22,0000 0000 0000 0000 000000
2015-10-09 08:09:52,0.07,2.52,0.00,23.19,27.82,30.64,14.62,48.00,1026.38,2033.99,2571.33,2646.01,2863.96,599.88,601.33,34.27,0000 0000 0000 0000 000000
2015-10-09 08:14:53,0.08,2.53,0.00,23.05,27.82,30.68,14.63,47.99,1026.38,2033.99,2569.85,2645.07,2862.96,599.72,601.44,34.32,0000 0000 0000 0000 000000
2015-10-09 08:19:54,0.10,2.53,0.00,23.09,27.82,30.66,14.63,48.02,1026.38,2033.99,2568.52,2644.05,2861.80,600.11,601.77,34.37,0000 0000 0000 0000 000000
2015-10-09 08:24:55,0.11,2.54,0.00,23.15,27.82,30.66,14.70,48.01,1026.38,2033.99,2566.60,2642.91,2860.48,600.69,602.14,34.42,0000 0000 0000 0000 000000
2015-10-09 08:29:57,0.07,2.54,0.00,23.14,27.82,30.66,14.64,48.01,1026.38,2033.99,2565.07,2641.99,2859.43,600.15,601.58,34.47,0000 0000 0000 0000 000000
2015-10-09 08:34:58,0.08,2.55,0.00,23.22,27.82,30.62,14.69,48.08,1026.38,2033.99,2563.81,2641.12,2858.59,599.85,601.24,34.52,0000 0000 0000 0000 000000
2015-10-09 08:39:59,0.08,2.55,0.00,23.18,27.82,30.69,14.68,48.11,1026.38,2033.98,2562.51,2640.29,2857.67,600.26,601.62,34.57,0000 0000 0000 0000 000000
2015-10-09 08:45:00,0.06,2.55,0.00,23.01,27.82,30.67,14.67,48.08,1026.38,2033.99,2561.43,2639.65,2856.82,600.06,601.81,34.62,0000 0000 0000 0000 000000
2015-10-09 08:50:02,0.06,2.56,0.00,23.15,27.82,30.62,14.65,48.12,1026.38,2033.99,2560.22,2638.85,2855.94,599.75,601.28,34.67,0000 0000 0000 0000 000000
2015-10-09 08:55:03,0.06,2.56,0.00,23.14,27.82,30.66,14.74,48.11,1026.38,2033.99,2559.08,2638.00,2855.03,600.52,601.98,34.72,0000 0000 0000 0000 000000
2015-10-09 09:00:05,0.09,2.56,0.00,23.05,27.82,30.65,14.70,48.19,1026.38,2033.99,2557.77,2637.09,2854.02,600.19,601.86,34.78,0000 0000 0000 0000 000000
2015-10-09 09:05:06,0.08,2.57,0.00,23.15,27.82,30.66,14.73,48.01,1026.39,2033.99,2556.55,2636.21,2853.09,600.23,601.56,34.83,0000 0000 0000 0000 000000
2015-10-09 09:10:07,0.08,2.57,0.00,23.01,27.82,30.69,14.70,48.16,1026.38,2033.99,2555.20,2635.45,2852.04,600.39,602.12,34.88,0000 0000 0000 0000 000000
2015-10-09 09:15:09,0.53,2.59,0.00,23.12,27.82,30.65,14.62,48.08,1026.39,2033.99,2548.55,2630.94,2847.42,599.95,601.49,34.93,0000 0000 0000 0000 000000
2015-10-09 09:20:10,0.14,2.61,0.00,23.12,27.82,30.66,14.60,48.06,1026.39,2033.99,2544.20,2627.99,2844.22,599.32,600.89,34.98,0000 0000 0000 0000 000000
2015-10-09 09:25:11,0.07,2.61,0.00,22.91,27.82,30.73,14.68,48.08,1026.39,2033.99,2543.00,2627.07,2843.18,599.87,601.86,35.03,0000 0000 0000 0000 000000
2015-10-09 09:30:13,0.07,2.61,0.00,22.82,27.81,30.70,14.77,48.40,1026.39,2033.98,2542.04,2626.47,2842.51,600.07,602.20,35.08,0000 0000 0000 0000 000000
2015-10-09 09:35:14,0.04,2.62,0.00,23.00,27.81,30.65,14.60,48.05,1026.40,2033.98,2541.12,2625.85,2841.76,599.84,601.78,35.13,0000 0000 0000 0000 000000
2015-10-09 09:40:15,0.06,2.62,0.00,23.05,27.82,30.67,14.74,48.27,1026.42,2033.98,2540.16,2625.05,2841.02,599.95,601.63,35.18,0000 0000 0000 0000 000000
2015-10-09 09:45:17,0.07,2.62,0.00,22.96,27.82,30.70,14.69,48.14,1026.40,2033.99,2539.29,2624.55,2840.31,599.92,601.84,35.23,0000 0000 0000 0000 000000
2015-10-09 09:50:18,0.11,2.63,0.00,23.11,27.82,30.67,14.64,48.18,1026.41,2033.99,2537.46,2623.48,2839.12,599.44,601.08,35.28,0000 0000 0000 0000 000000
2015-10-09 09:55:20,0.14,2.63,0.00,23.00,27.82,30.71,14.67,48.19,1026.40,2033.99,2534.81,2622.12,2837.49,599.84,601.70,35.33,0000 0000 0000 0000 000000
2015-10-09 10:00:21,0.08,2.64,0.00,22.92,27.82,30.69,14.65,48.27,1026.40,2033.99,2533.02,2621.07,2836.33,600.28,602.28,35.38,0000 0000 0000 0000 000000
2015-10-09 10:05:23,0.11,2.65,0.00,23.08,27.82,30.66,14.70,48.20,1026.40,2033.99,2531.27,2620.06,2835.20,599.97,601.62,35.43,0000 0000 0000 0000 000000
2015-10-09 10:10:24,0.12,2.65,0.00,23.03,27.82,30.67,14.69,48.23,1026.39,2033.98,2529.14,2618.81,2833.83,600.11,601.86,35.48,0000 0000 0000 0000 000000
2015-10-09 10:15:25,0.11,2.66,0.00,23.11,27.82,30.67,14.73,48.27,1026.38,2033.99,2527.38,2617.72,2832.67,599.78,601.31,35.53,0000 0000 0000 0000 000000
2015-10-09 10:20:26,0.09,2.66,0.00,23.01,27.82,30.68,14.71,48.33,1026.38,2033.98,2525.46,2616.80,2831.48,599.91,601.67,35.58,0000 0000 0000 0000 000000
2015-10-09 10:25:28,0.17,2.67,0.00,23.02,27.83,30.67,14.60,48.28,1026.38,2033.99,2522.97,2615.37,2830.07,599.66,601.29,35.63,0000 0000 0000 0000 000000
2015-10-09 10:30:29,0.11,2.68,0.00,23.09,27.84,30.68,14.56,48.23,1026.38,2033.99,2520.32,2613.95,2828.44,599.68,601.30,35.68,0000 0000 0000 0000 000000
2015-10-09 10:35:30,0.08,2.68,0.00,23.05,27.84,30.68,14.65,48.32,1026.38,2033.98,2518.92,2613.05,2827.42,599.68,601.36,35.74,0000 0000 0000 0000 000000
2015-10-09 10:40:31,0.06,2.68,0.00,23.18,27.85,30.68,14.64,48.27,1026.38,2033.99,2517.91,2612.31,2826.75,599.86,601.23,35.79,0000 0000 0000 0000 000000
2015-10-09 10:45:33,0.04,2.69,0.00,23.15,27.85,30.68,14.74,48.30,1026.38,2033.98,2517.00,2611.83,2825.98,600.42,602.01,35.84,0000 0000 0000 0000 000000
2015-10-09 10:50:34,0.06,2.69,0.00,23.18,27.85,30.69,14.62,48.26,1026.38,2033.96,2516.06,2611.03,2825.13,599.88,601.27,35.89,0000 0000 0000 0000 000000
2015-10-09 10:55:35,0.07,2.69,0.00,23.22,27.85,30.69,14.63,48.23,1026.38,2033.98,2515.16,2610.41,2824.53,599.83,601.16,35.94,0000 0000 0000 0000 000000
2015-10-09 11:00:36,0.05,2.70,0.00,23.23,27.85,30.68,14.66,48.33,1026.38,2033.98,2514.22,2609.88,2823.80,600.01,601.25,35.99,0000 0000 0000 0000 000000
2015-10-09 11:05:38,0.06,2.70,0.00,23.24,27.85,30.68,14.71,48.37,1026.38,2033.96,2513.31,2609.09,2823.05,600.17,601.31,36.04,0000 0000 0000 0000 000000
2015-10-09 11:10:39,0.06,2.70,0.00,23.22,27.85,30.68,14.68,48.38,1026.38,2033.96,2512.53,2608.57,2822.32,599.90,601.23,36.09,0000 0000 0000 0000 000000
2015-10-09 11:15:40,0.03,2.71,0.00,23.28,27.85,30.67,14.69,48.31,1026.38,2033.95,2511.67,2608.01,2821.73,599.94,601.05,36.14,0000 0000 0000 0000 000000
2015-10-09 11:20:41,0.05,2.71,0.00,23.12,27.85,30.69,14.70,48.40,1026.37,2033.97,2510.88,2607.44,2821.04,600.03,601.55,36.19,0000 0000 0000 0000 000000
2015-10-09 11:25:43,0.04,2.71,0.00,23.14,27.85,30.65,14.67,48.34,1026.33,2033.98,2510.08,2607.00,2820.42,600.16,601.49,36.24,0000 0000 0000 0000 000000
2015-10-09 11:30:44,0.05,2.71,0.00,23.21,27.85,30.64,14.62,48.38,1026.13,2033.95,2509.44,2606.41,2819.95,600.09,601.21,36.29,0000 0000 0000 0000 000000
2015-10-09 11:35:46,0.03,2.72,0.00,23.19,27.85,30.69,14.68,48.44,1026.02,2033.95,2508.78,2605.98,2819.20,600.24,601.40,36.34,0000 0000 0000 0000 000000
2015-10-09 11:40:47,0.04,2.72,0.00,23.26,27.85,30.67,14.65,48.40,1026.05,2033.93,2508.02,2605.29,2818.81,599.96,600.99,36.39,0000 0000 0000 0000 000000
2015-10-09 11:45:48,0.03,2.72,0.00,23.18,27.85,30.68,14.66,48.42,1026.12,2033.86,2507.22,2604.97,2818.04,599.89,601.08,36.44,0000 0000 0000 0000 000000
2015-10-09 11:50:49,0.07,2.72,0.00,23.26,27.85,30.64,14.66,48.41,1026.20,2033.87,2506.54,2604.25,2817.52,599.83,600.84,36.49,0000 0000 0000 0000 000000
2015-10-09 11:55:50,0.01,2.73,0.00,23.17,27.85,30.69,14.74,48.34,1026.29,2033.90,2505.91,2603.99,2817.01,600.06,601.47,36.54,0000 0000 0000 0000 000000
2015-10-09 12:00:51,0.07,2.73,0.00,23.21,27.85,30.67,14.72,48.39,1026.33,2033.91,2505.14,2603.43,2816.39,599.88,601.18,36.60,0000 0000 0000 0000 000000
2015-10-09 12:05:53,0.03,2.73,0.00,23.17,27.85,30.68,14.60,48.38,1026.33,2033.93,2504.47,2602.99,2815.97,599.63,601.02,36.65,0000 0000 0000 0000 000000
2015-10-09 12:10:54,0.06,2.73,0.00,23.20,27.85,30.66,14.67,48.38,1026.36,2033.92,2503.80,2602.36,2815.18,600.25,601.64,36.70,0000 0000 0000 0000 000000
2015-10-09 12:15:56,0.02,2.73,0.00,23.22,27.85,30.67,14.77,48.45,1026.38,2033.95,2503.02,2602.00,2814.87,600.22,601.52,36.75,0000 0000 0000 0000 000000
2015-10-09 12:20:57,0.08,2.74,0.00,23.19,27.85,30.68,14.75,48.48,1026.38,2033.95,2502.17,2601.30,2814.08,600.10,601.54,36.80,0000 0000 0000 0000 000000
2015-10-09 12:25:58,0.04,2.74,0.00,23.19,27.85,30.67,14.59,48.32,1026.38,2033.96,2501.44,2600.96,2813.56,599.54,600.95,36.85,0000 0000 0000 0000 000000
2015-10-09 12:30:59,0.05,2.74,0.00,23.22,27.85,30.69,14.68,48.40,1026.38,2033.95,2500.59,2600.12,2812.95,600.20,601.44,36.90,0000 0000 0000 0000 000000
2015-10-09 12:36:00,0.04,2.75,0.00,23.13,27.85,30.68,14.63,48.46,1026.38,2033.91,2499.78,2599.75,2812.10,599.79,601.27,36.95,0000 0000 0000 0000 000000
2015-10-09 12:41:02,0.04,2.75,0.00,23.23,27.85,30.69,14.65,48.33,1026.38,2033.93,2499.03,2599.04,2811.68,599.92,601.28,37.00,0000 0000 0000 0000 000000
2015-10-09 12:46:03,0.05,2.75,0.00,23.17,27.85,30.70,14.72,48.48,1026.38,2033.93,2498.24,2598.69,2811.01,600.21,601.62,37.05,0000 0000 0000 0000 000000
2015-10-09 12:51:04,0.05,2.75,0.00,23.25,27.85,30.70,14.54,48.40,1026.38,2033.94,2497.59,2598.04,2810.35,599.66,600.84,37.10,0000 0000 0000 0000 000000
2015-10-09 12:56:05,0.03,2.75,0.00,23.12,27.85,30.71,14.72,48.47,1026.38,2033.96,2496.88,2597.69,2809.91,599.98,601.39,37.15,0000 0000 0000 0000 000000